Regional Weather Roundup
Issued by NWS

Home | Current Version | Previous Version | Graphics & Text | Print | Product List | Glossary On
Versions: 1 2 3 4 5 6 7 8 9 10 11 12 13 14 15 16 17 18 19 20 21 22 23 24 25 26 27
000
ASUS45 KBOI 301610
RWRID

IDAHO REGIONAL WEATHER ROUNDUP
NATIONAL WEATHER SERVICE BOISE ID
1000 AM MDT SAT APR 30 2016

NOTE: "FAIR" INDICATES FEW OR NO CLOUDS BELOW 12000 FEET
WITH NO SIGNIFICANT WEATHER AND/OR OBSTRUCTIONS TO VISIBILITY

IDZ012-014-301700-
SOUTHWEST IDAHO


CITY           SKY/WX    TMP DP  RH WIND       PRES   REMARKS
BOISE          SUNNY     54  37  52 NW20G28   30.06R
CALDWELL       SUNNY     54  40  59 NW17      30.10S
MOUNTAIN HOME  SUNNY     53  37  53 NW20G25   30.04R
$$

IDZ016-017-301700-
SOUTHCENTRAL IDAHO


CITY           SKY/WX    TMP DP  RH WIND       PRES   REMARKS
BURLEY         CLOUDY    42  38  85 W9G16     30.05R
JEROME         CLOUDY    41  38  89 SW9       30.06R
TWIN FALLS     CLOUDY    43  37  79 SW9       30.06R
$$

IDZ019>023-301700-
SOUTHEAST IDAHO


CITY           SKY/WX    TMP DP  RH WIND       PRES   REMARKS
IDAHO FALLS    CLOUDY    46  35  65 NE5       30.03R
POCATELLO      PTSUNNY   46  39  76 CALM      30.03R
REXBURG        CLOUDY    46  36  68 NE6       30.02R
$$

IDZ006-010-011-018-031-032-301700-
CENTRAL IDAHO MOUNTAINS


CITY           SKY/WX    TMP DP  RH WIND       PRES   REMARKS
MCCALL         CLOUDY    43  35  73 VRB5      30.10R
HAILEY         PTSUNNY   45  36  70 W6        30.05R
STANLEY          N/A     42  26  53 NW10      30.09R
SALMON         CLOUDY    46  32  57 CALM      30.10S
CHALLIS        CLOUDY    45  29  53 W3        30.09R
$$

IDZ002-004-006-007-026-301700-
NORTHERN IDAHO


CITY           SKY/WX    TMP DP  RH WIND       PRES   REMARKS
LEWISTON       CLOUDY    51  47  86 CALM      30.21R
LOWELL           N/A     51  43  74 CALM      30.21S
COEUR D`ALENE  CLOUDY    48  43  81 NE7       30.20R
MULLAN PASS    CLOUDY    35  34  96 N3        30.17R
$$




USA.gov is the U.S. government's official web portal to all federal, state and local government web resources and services.